Weather History for KDAG - December, 2012

Change the Weather History Date:

Thursday, December 6, 2012

  Actual Average Record
Temperature  
Mean Temperature 60 °F -  
Max Temperature 71 °F 62 °F 76 °F (1977)
Min Temperature 50 °F 37 °F 21 °F (2011)
Degree Days  
Heating Degree Days 4    
Growing Degree Days 10 (Base 50)    
Moisture  
Dew Point 39 °F    
Average Humidity 48    
Maximum Humidity 71    
Minimum Humidity 31    
Precipitation  
Precipitation 0.00 in - - ()
Sea Level Pressure  
Sea Level Pressure 29.93 in    
Wind  
Wind Speed 9 mph (West)    
Max Wind Speed 15 mph    
Max Gust Speed -    
Visibility 10 miles    
Events      
Averages and records for this station are not official NWS values.
T = Trace of Precipitation, MM = Missing Value Source: NWS Daily Summary

Daily Weather History Graph

Daily Weather History Graph

Search for Another Location

Airport or City:

Trip Planner

Search our weather history database for the weather conditions in past years. The results will help you decide how hot, cold, wet, or windy it might be!

Date:

Astronomy

Dec. 06, 2012 Rise Set
Actual Time 6:41 AM PST 4:35 PM PST
Civil Twilight 6:13 AM PST 5:03 PM PST
Nautical Twilight 5:41 AM PST 5:34 PM PST
Astronomical Twilight 5:11 AM PST 6:05 PM PST
Moon No Moon Rise 11:49 AM PST (12/6)
Length of Visible Light 10h 50m
Length of Day
9h 54m
Waning Gibbous, 48% of the Moon is Illuminated
Dec 6
Waning Gibbous
Dec 13
New
Dec 19
First Quarter
Dec 28
Full
Jan 4
Last Quarter

Hourly Weather History & Observations

Time (PST) Temp. Dew Point Humidity Pressure Visibility Wind Dir Wind Speed Gust Speed Precip Events Conditions
12:50 AM 53.1 °F 33.1 °F 47% 29.96 in 10.0 mi WNW 5.8 mph - N/A   Clear
1:50 AM 53.1 °F 35.1 °F 50% 29.96 in 10.0 mi WSW 10.4 mph - N/A   Clear
2:50 AM 53.1 °F 35.1 °F 50% 29.95 in 10.0 mi WSW 10.4 mph - N/A   Clear
3:50 AM 52.0 °F 35.1 °F 53% 29.94 in 10.0 mi WSW 8.1 mph - N/A   Clear
4:50 AM 50.0 °F 35.1 °F 57% 29.94 in 10.0 mi West 8.1 mph - N/A   Clear
5:50 AM 51.1 °F 37.9 °F 61% 29.95 in 10.0 mi WSW 11.5 mph - N/A   Clear
6:50 AM 50.0 °F 37.9 °F 63% 29.97 in 10.0 mi West 8.1 mph - N/A   Clear
7:50 AM 53.1 °F 37.9 °F 57% 29.98 in 10.0 mi West 9.2 mph - N/A   Clear
8:50 AM 57.9 °F 39.9 °F 51% 29.99 in 10.0 mi WNW 13.8 mph - N/A   Clear
9:50 AM 62.1 °F 41.0 °F 46% 29.99 in 10.0 mi WNW 15.0 mph - N/A   Clear
10:50 AM 64.9 °F 41.0 °F 42% 29.96 in 10.0 mi WNW 12.7 mph - N/A   Clear
11:50 AM 68.0 °F 41.0 °F 37% 29.93 in 10.0 mi WNW 11.5 mph - N/A   Clear
12:50 PM 70.0 °F 39.9 °F 33% 29.90 in 10.0 mi West 10.4 mph - N/A   Clear
1:50 PM 70.0 °F 39.0 °F 32% 29.87 in 10.0 mi WNW 9.2 mph - N/A   Clear
2:50 PM 71.1 °F 39.0 °F 31% 29.86 in 10.0 mi WNW 6.9 mph - N/A   Clear
3:50 PM 70.0 °F 39.0 °F 32% 29.86 in 10.0 mi West 6.9 mph - N/A   Clear
4:50 PM 64.9 °F 37.9 °F 37% 29.86 in 10.0 mi West 8.1 mph - N/A   Clear
5:50 PM 62.1 °F 37.0 °F 39% 29.88 in 10.0 mi West 5.8 mph - N/A   Clear
6:50 PM 59.0 °F 37.0 °F 44% 29.91 in 10.0 mi West 8.1 mph - N/A   Clear
7:50 PM 60.1 °F 37.9 °F 44% 29.92 in 10.0 mi West 12.7 mph - N/A   Clear
8:50 PM 59.0 °F 41.0 °F 51% 29.93 in 10.0 mi West 12.7 mph - N/A   Clear
9:50 PM 54.0 °F 42.1 °F 64% 29.95 in 10.0 mi West 9.2 mph - N/A   Clear
10:50 PM 53.1 °F 42.1 °F 66% 29.95 in 10.0 mi West 10.4 mph - N/A   Clear
11:50 PM 51.1 °F 42.1 °F 71% 29.96 in 10.0 mi West 11.5 mph - N/A   Clear